[[{"header":{"parameterUnit":"m.s-1","parameterCategory":1,"la1":30.2991,"la2":30.254,"lo1":-89.0895,"lo2":-89.0444,"dy":0.0017,"dx":0.0017,"nx":28,"ny":28,"refTime":"2023-08-06T03:00:00:Z","depth":0,"parameterNumber":2,"parameterNumberName":"U-component_of_WINDS"},"data":[0,0,0,0,0,0,0,0,0,0,0,0,0,0,0,0,0,0,0,0,0,0,0,0,0,0,0,0,0,0,0,0,0,0,0,0,0,0,0,0,0,0,0,0,0,0,0,0,0,0,0,0,0,0,0,0,0,0,2.3839,2.384,0,2.3926,2.3927,2.3928,2.3972,2.3973,2.3973,2.3973,2.4065,2.4067,2.407,0,0,0,0,0,0,0,0,0,0,0,0,0,2.3717,2.3719,2.3839,2.384,2.3841,2.3926,2.3927,2.3928,2.3972,2.3973,2.3973,2.3973,2.4064,2.4067,2.407,0,0,0,0,0,0,0,0,0,0,0,0,0,2.3784,2.372,2.3839,2.3874,2.3877,2.3925,2.3927,2.3928,2.3972,2.3973,2.3973,2.3973,2.4063,2.4067,2.407,2.4091,0,0,2.4081,2.4083,0,0,0,0,0,0,0,0,2.378,2.3788,2.3867,2.3871,2.3876,2.3938,2.3918,2.3983,2.3972,2.3937,2.3973,2.3973,2.4023,2.403,2.4046,2.4096,2.4099,2.4082,2.4084,2.4085,2.4086,0,0,0,0,0,0,0,2.3775,2.3785,2.3873,2.3868,2.3874,2.3887,2.3896,2.393,2.3978,2.394,2.3943,2.3953,2.4025,2.4042,2.4049,2.4101,2.4082,2.4085,2.4087,2.4088,2.4175,2.4175,0,0,0,0,0,0,2.3765,2.3781,2.3871,2.3876,2.3827,2.3889,2.3899,2.3918,2.3978,2.3987,2.3952,2.3954,2.4036,2.4044,2.4052,2.4082,2.4085,2.4089,2.4091,2.4174,2.4175,2.4175,0,0,0,0,0,0,2.3762,2.3772,2.3867,2.3829,2.3842,2.3891,2.3912,2.392,2.3937,2.3988,2.3997,2.3961,2.4037,2.4047,2.4081,2.4085,2.409,2.4094,2.4174,2.4174,2.4175,2.414,0,0,0,0,0,0,2.3758,2.3771,2.3778,2.3829,2.3844,2.3893,2.3912,2.3922,2.3943,2.3946,2.3998,2.4007,2.4037,2.4076,2.4085,2.409,2.4097,2.4174,2.4174,2.4175,2.4141,2.4139,2.4137,0,0,0,0,0,2.3754,2.3765,2.3778,2.3788,2.3854,2.3893,2.3902,2.3936,2.3943,2.3951,2.3984,2.4005,2.4084,2.4079,2.409,2.4096,2.4174,2.4174,2.4175,2.4142,2.4139,2.4137,0,0,0,0,0,0,2.3713,2.3772,2.3787,2.3815,2.3849,2.3901,2.3912,2.3932,2.3966,2.3967,2.401,2.4021,2.4052,2.4078,2.4072,2.4121,2.4131,2.4134,2.4102,2.4101,2.4099,2.4092,2.41,0,0,0,0,0,2.3707,2.3733,2.3784,2.3804,2.382,2.3863,2.3882,2.3905,2.3942,2.3957,2.3993,2.4029,2.4062,2.4083,2.4116,2.4145,2.4158,2.4156,2.4154,2.4152,2.4153,2.4173,2.4172,2.4176,2.4176,2.4176,0,0,2.3696,2.3731,2.3745,2.3797,2.3826,2.3853,2.3875,2.3902,2.3924,2.3962,2.3996,2.4024,2.4068,2.41,2.4116,2.4122,2.4156,2.4152,2.415,2.4153,2.4173,2.4172,2.4172,2.4176,2.4176,2.4176,0,0,2.3688,2.3717,2.3738,2.3767,2.381,2.3839,2.3844,2.3894,2.3913,2.3949,2.3978,2.4006,2.4061,2.4092,2.4114,2.4122,2.4143,2.4132,2.4122,2.414,2.4139,2.4139,2.4143,2.4144,2.4133,2.4133,2.4133,0,2.3669,2.371,2.3746,2.3772,2.3795,2.3831,2.3853,2.388,2.3932,2.3948,2.3954,2.4026,2.4058,2.4099,2.4101,2.4118,2.4126,2.4125,2.4136,2.4137,2.4137,2.4141,2.4142,2.4132,2.4132,2.4132,2.4132,0,2.3684,2.3712,2.3724,2.3773,2.3797,2.3821,2.3863,2.3884,2.3906,2.3935,2.3972,2.4012,2.4055,2.4067,2.4089,2.4111,2.4114,2.4128,2.4139,2.4135,2.4139,2.4141,2.4129,2.413,2.413,2.4131,0,0,2.3651,2.3722,2.3725,2.3749,2.3801,2.3824,2.3852,2.3893,2.391,2.3946,2.3971,2.4019,2.4032,2.4058,2.4085,2.4101,2.4106,2.4113,2.4115,2.4111,2.4135,2.4123,2.4124,2.4121,2.4121,2.4121,2.4131,0,2.3651,2.3699,2.3734,2.377,2.3797,2.3833,2.3858,2.3893,2.3922,2.3951,2.3984,2.4017,2.4032,2.4049,2.4066,2.4101,2.4111,2.4101,2.4145,2.4146,2.4132,2.4126,2.4114,2.4121,2.4133,2.4133,2.4133,0,2.3656,2.3691,2.3729,2.378,2.3793,2.3814,2.3856,2.3883,2.3925,2.3945,2.3975,2.4003,2.4035,2.4044,2.4091,2.4083,2.4104,2.4124,2.4126,2.413,2.4139,2.4131,2.4124,2.4125,2.4136,2.4136,2.4136,0,2.3628,2.3685,2.3715,2.3735,2.3795,2.3809,2.3835,2.3878,2.3901,2.3938,2.3954,2.3995,2.4018,2.405,2.4088,2.4091,2.4131,2.4143,2.415,2.4149,2.4156,2.4155,2.4152,2.417,2.417,2.417,2.417,0,2.3624,2.3646,2.3704,2.3722,2.3749,2.3791,2.3817,2.3846,2.3885,2.3911,2.3946,2.397,2.402,2.4052,2.4083,2.4117,2.4127,2.4145,2.4153,2.4142,2.4139,2.4155,2.4156,2.417,2.417,2.417,2.417,0,2.3596,2.3636,2.3672,2.3727,2.3741,2.3759,2.3807,2.3828,2.3859,2.3893,2.3903,2.3953,2.3992,2.4035,2.4088,2.4109,2.4142,2.4153,2.4127,2.4131,2.4136,2.4135,2.4142,2.4146,2.4161,2.4161,2.4161,0,2.359,2.3608,2.3665,2.3685,2.371,2.3742,2.3767,2.381,2.3834,2.3885,2.39,2.3942,2.3977,2.4038,2.408,2.4122,2.4135,2.4135,2.4141,2.413,2.4135,2.4133,2.4136,2.4132,2.4132,2.4131,2.4131,0,2.3575,2.3594,2.3627,2.3668,2.3696,2.373,2.3766,2.3781,2.3832,2.3858,2.3898,2.3925,2.398,2.4022,2.4069,2.4098,2.4124,2.4129,2.4133,2.4121,2.4105,2.4114,2.4121,2.4128,2.4129,2.4129,2.4129,2.4129,2.3558,2.3576,2.362,2.3657,2.3688,2.3722,2.3744,2.378,2.3814,2.3861,2.3885,2.3926,2.3971,2.4037,2.4066,2.4099,2.4107,2.4112,2.4114,2.4114,2.4111,2.4101,2.4108,2.4108,2.4109,2.4109,2.4109,0,2.3545,2.3575,2.3609,2.3658,2.3687,2.3709,2.3751,2.3774,2.3809,2.3849,2.3883,2.3931,2.3972,2.4018,2.4063,2.4081,2.4094,2.4091,2.409,2.4097,2.4102,2.4094,2.408,2.408,2.408,2.408,2.408,2.408,2.3541,2.3574,2.3599,2.3649,2.368,2.3719,2.3742,2.3773,2.3806,2.3857,2.3891,2.3921,2.3964,2.4013,2.4053,2.4066,2.408,2.4074,2.409,2.4094,2.4096,2.4098,2.4091,2.4077,2.4077,2.4083,2.4083,2.4083]},{"header":{"parameterUnit":"m.s-1","parameterCategory":1,"la1":30.2991,"la2":30.254,"lo1":-89.0895,"lo2":-89.0444,"dy":0.0017,"dx":0.0017,"nx":28,"ny":28,"refTime":"2023-08-06T03:00:00:Z","depth":0,"parameterNumber":3,"parameterNumberName":"V-component_of_WINDS"},"data":[0,0,0,0,0,0,0,0,0,0,0,0,0,0,0,0,0,0,0,0,0,0,0,0,0,0,0,0,0,0,0,0,0,0,0,0,0,0,0,0,0,0,0,0,0,0,0,0,0,0,0,0,0,0,0,0,0,0,3.8483,3.8483,0,3.8537,3.8538,3.8539,3.8569,3.857,3.857,3.857,3.862,3.8621,3.8622,0,0,0,0,0,0,0,0,0,0,0,0,0,3.8398,3.84,3.8483,3.8483,3.8484,3.8537,3.8538,3.8539,3.8569,3.857,3.857,3.857,3.8619,3.8621,3.8622,0,0,0,0,0,0,0,0,0,0,0,0,0,3.8442,3.84,3.8483,3.8506,3.8509,3.8537,3.8538,3.8539,3.8569,3.857,3.857,3.857,3.8619,3.8621,3.8623,3.863,0,0,3.8628,3.8629,0,0,0,0,0,0,0,0,3.8439,3.8445,3.8502,3.8504,3.8507,3.8547,3.8527,3.8569,3.8569,3.8546,3.857,3.857,3.8595,3.8599,3.8609,3.8633,3.8635,3.8628,3.8629,3.863,3.8631,0,0,0,0,0,0,0,3.8436,3.8443,3.8504,3.8503,3.8506,3.8511,3.8518,3.8535,3.8569,3.8548,3.8551,3.8557,3.8597,3.8607,3.861,3.8635,3.8628,3.863,3.8631,3.8632,3.8667,3.8667,0,0,0,0,0,0,3.843,3.844,3.8502,3.8506,3.8473,3.8513,3.852,3.8534,3.8569,3.8574,3.8557,3.8558,3.8603,3.8608,3.8612,3.8623,3.863,3.8632,3.8633,3.8668,3.8667,3.8667,0,0,0,0,0,0,3.8428,3.8436,3.85,3.8474,3.8482,3.8514,3.8529,3.8535,3.8545,3.8575,3.8581,3.8561,3.8604,3.8609,3.8626,3.8625,3.8633,3.8634,3.8668,3.8668,3.8667,3.8645,0,0,0,0,0,0,3.8426,3.8435,3.844,3.8474,3.8484,3.8515,3.853,3.8536,3.8549,3.8551,3.8581,3.8586,3.8604,3.8623,3.8627,3.8628,3.8636,3.8668,3.8668,3.8667,3.8646,3.8644,3.8642,0,0,0,0,0,3.8423,3.843,3.844,3.8447,3.8491,3.8515,3.8521,3.8543,3.8549,3.8553,3.8572,3.8585,3.8624,3.8624,3.863,3.863,3.8668,3.8668,3.8667,3.8647,3.8644,3.8642,0,0,0,0,0,0,3.8393,3.8435,3.8446,3.8465,3.8487,3.852,3.8526,3.854,3.8559,3.856,3.8585,3.8592,3.8605,3.8619,3.8619,3.8639,3.8647,3.8648,3.863,3.8628,3.8626,3.8622,3.8637,0,0,0,0,0,3.8389,3.8408,3.8442,3.8455,3.8466,3.8494,3.8505,3.8521,3.8543,3.8552,3.8572,3.8592,3.8609,3.8619,3.8636,3.8648,3.8654,3.8651,3.8649,3.8648,3.8648,3.8654,3.8653,3.8666,3.8666,3.8666,0,0,3.838,3.8405,3.8415,3.845,3.8469,3.8485,3.8501,3.8518,3.853,3.8554,3.8571,3.8587,3.861,3.8624,3.8631,3.8636,3.8646,3.8647,3.8646,3.8647,3.8654,3.8653,3.8651,3.8666,3.8666,3.8666,0,0,3.8373,3.8394,3.8408,3.8426,3.8455,3.8473,3.8476,3.8508,3.852,3.8538,3.8556,3.8569,3.8598,3.8614,3.8625,3.8623,3.8635,3.8627,3.8618,3.8624,3.8623,3.8622,3.8621,3.862,3.8628,3.8628,3.8628,0,3.8358,3.8386,3.8412,3.8428,3.8442,3.8467,3.8479,3.8495,3.8526,3.8534,3.854,3.8576,3.8593,3.8611,3.8611,3.8619,3.8622,3.8624,3.8622,3.8621,3.8621,3.862,3.8619,3.8626,3.8627,3.8627,3.8627,0,3.8365,3.8384,3.8391,3.8423,3.8438,3.8452,3.8478,3.8489,3.8503,3.8521,3.8538,3.856,3.8581,3.8587,3.86,3.8606,3.8608,3.8617,3.8626,3.8618,3.8617,3.8617,3.8625,3.8625,3.8626,3.8626,0,0,3.8341,3.8388,3.839,3.8405,3.8438,3.8451,3.8465,3.8489,3.8497,3.8518,3.8529,3.8553,3.8561,3.8574,3.8589,3.8595,3.8591,3.8603,3.8604,3.8599,3.8598,3.859,3.859,3.8599,3.8599,3.8599,3.8596,0,3.8338,3.8368,3.8391,3.8411,3.8428,3.8451,3.8463,3.8483,3.8499,3.8514,3.8531,3.8547,3.8558,3.8566,3.8572,3.859,3.859,3.859,3.8608,3.8609,3.8602,3.859,3.8582,3.8578,3.8595,3.8595,3.8595,0,3.8339,3.8361,3.8383,3.8414,3.8421,3.8432,3.8455,3.8469,3.8492,3.8503,3.8518,3.8534,3.8548,3.8555,3.8574,3.8573,3.8581,3.8591,3.8591,3.8594,3.8601,3.8591,3.8577,3.8576,3.8595,3.8595,3.8595,0,3.8319,3.8353,3.8371,3.8382,3.8419,3.8426,3.8441,3.8464,3.8476,3.8495,3.8503,3.8522,3.8532,3.8546,3.8566,3.857,3.8582,3.8591,3.859,3.859,3.8592,3.8591,3.8579,3.8598,3.8598,3.8598,3.8598,0,3.8313,3.8325,3.8362,3.8373,3.8386,3.8412,3.8424,3.8441,3.8461,3.8474,3.8494,3.8505,3.8531,3.8544,3.8559,3.8572,3.8576,3.8585,3.8589,3.8583,3.8582,3.8589,3.8589,3.8598,3.8598,3.8598,3.8598,0,3.8292,3.8318,3.8338,3.8372,3.838,3.8389,3.8416,3.8426,3.8444,3.8459,3.8464,3.8491,3.8508,3.8529,3.8552,3.8562,3.8573,3.8579,3.8566,3.8568,3.8566,3.8566,3.8557,3.8557,3.8576,3.8576,3.8576,0,3.8287,3.8297,3.8332,3.8343,3.8358,3.8375,3.8389,3.8414,3.8426,3.8452,3.8458,3.8477,3.8494,3.8519,3.8539,3.8556,3.8563,3.8559,3.8566,3.8559,3.8562,3.8561,3.8562,3.8557,3.8556,3.8556,3.8556,0,3.8275,3.8287,3.8306,3.8329,3.8345,3.8363,3.8383,3.839,3.8419,3.8431,3.845,3.8463,3.8487,3.8505,3.8525,3.8538,3.8551,3.8554,3.8554,3.8549,3.854,3.8544,3.8561,3.8554,3.8554,3.8554,3.8554,3.8554,3.8261,3.8271,3.8298,3.8318,3.8336,3.8353,3.8364,3.8384,3.8401,3.8424,3.8437,3.8454,3.8475,3.8504,3.8517,3.8529,3.8534,3.8535,3.8536,3.8535,3.8533,3.8539,3.8533,3.8533,3.8533,3.8533,3.8533,0,3.8249,3.8268,3.8286,3.8314,3.8329,3.8343,3.8365,3.8376,3.8392,3.8412,3.8428,3.8448,3.8466,3.8487,3.8505,3.8511,3.8518,3.8515,3.8515,3.8517,3.8528,3.8526,3.851,3.851,3.851,3.851,3.851,3.851,3.8245,3.8263,3.8278,3.8303,3.8321,3.834,3.8352,3.8367,3.8383,3.8406,3.8421,3.8436,3.8456,3.8475,3.8491,3.8497,3.8502,3.8498,3.8505,3.8515,3.8517,3.8519,3.8516,3.8499,3.8499,3.8493,3.8493,3.8493]}]]